This demonstration page uses our WeatherBlox Daily Observations layout. Learn more.

Left ArrowRight Arrow

Hourly Observations for December 1, 2022

Temp ( °F °C ) Dew Point ( °F °C ) Humidity (%) Winds ( mph kmh ) Pressure ( in mb ) Visibility ( mi km ) Precip ( " mm )
12:56 am 00:56 Clear 21 -6.1 16 -8.9 80 80 S 12 19 30.20 1023 10 16 0.00 0.00
1:56 am 01:56 Clear 26 -3.3 19 -7.2 74 74 S 24 39 30.13 1020 10 16 0.00 0.00
2:56 am 02:56 Clear 26 -3.3 19 -7.2 74 74 S 24 39 30.11 1020 10 16 0.00 0.00
3:56 am 03:56 Clear 27 -2.8 19 -7.2 72 72 S 23 37 30.07 1018 10 16 0.00 0.00
4:56 am 04:56 Clear 26 -3.3 18 -7.8 71 71 SSE 18 30 30.05 1018 10 16 0.00 0.00
5:56 am 05:56 Clear 24 -4.4 18 -7.8 77 77 SSE 16 26 30.04 1017 10 16 0.00 0.00
6:56 am 06:56 Clear 27 -2.8 18 -7.8 68 68 S 16 26 30.04 1017 10 16 0.00 0.00
7:56 am 07:56 Sunny 25 -3.9 18 -7.8 74 74 S 12 19 30.04 1017 10 16 0.00 0.00
8:56 am 08:56 Sunny 30 -1.1 20 -6.7 66 66 S 18 30 30.02 1017 10 16 0.00 0.00
9:56 am 09:56 Sunny 35 1.7 20 -6.7 54 54 SSW 24 39 29.99 1016 10 16 0.00 0.00
10:56 am 10:56 Sunny 39 3.9 22 -5.6 50 50 SSW 22 35 29.98 1015 10 16 0.00 0.00
11:56 am 11:56 Sunny 43 6.1 23 -5 45 45 SSW 21 33 29.95 1014 10 16 0.00 0.00
12:56 pm 12:56 Sunny 46 7.8 23 -5 40 40 SSW 20 31 29.92 1013 10 16 0.00 0.00
1:56 pm 13:56 Sunny 48 8.9 23 -5 37 37 SSW 21 33 29.88 1012 10 16 0.00 0.00
2:56 pm 14:56 Sunny 50 10 24 -4.4 36 36 S 18 30 29.85 1011 10 16 0.00 0.00
3:56 pm 15:56 Sunny 51 10.6 24 -4.4 34 34 S 16 26 29.84 1010 10 16 0.00 0.00
4:56 pm 16:56 Sunny 46 7.8 24 -4.4 42 42 S 14 22 29.82 1010 10 16 0.00 0.00
5:56 pm 17:56 Clear 39 3.9 23 -5 52 52 SSE 13 20 29.83 1010 10 16 0.00 0.00
7:56 pm 19:56 Clear 40 4.4 25 -3.9 55 55 S 16 26 29.81 1009 10 16 0.00 0.00
8:56 pm 20:56 Clear 42 5.6 24 -4.4 48 48 S 20 31 29.76 1008 10 16 0.00 0.00
9:56 pm 21:56 Clear 41 5 26 -3.3 55 55 S 23 37 29.72 1007 10 16 0.00 0.00
10:56 pm 22:56 Clear 40 4.4 27 -2.8 59 59 S 24 39 29.70 1006 10 16 0.00 0.00
11:56 pm 23:56 Clear 40 4.4 27 -2.8 59 59 S 24 39 29.68 1005 10 16 0.00 0.00

Powered by AerisWeather